Preview of NWS' New Version of Forecast
This preview is not operational and should not be used for support decisions.

Regional Weather Roundup (RWR)

Issued by National Weather Service (NWS)

                            
000
ASUS43 KLSX 251857
RWRMO 

WEATHER SUMMARY FOR MISSOURI
NATIONAL WEATHER SERVICE SPRINGFIELD MO
200 PM CDT SUN AUG 25 2019

NOTE: "FAIR" INDICATES FEW OR NO CLOUDS BELOW 12,000 FEET WITH NO
       SIGNIFICANT WEATHER AND/OR OBSTRUCTIONS TO VISIBILITY.
       CURRENT SKY AND/OR WEATHER CONDITIONS ARE NOT AVAILABLE FOR
       CHILLICOTHE AND FARMINGTON.

MOZ001>031-035>038-043-044-053-054-252000-
...NORTHERN AND WESTERN MISSOURI...
  
CITY           SKY/WX    TMP DP  RH WIND       PRES   REMARKS
KANSAS CTY INT LGT RAIN  68  67  96 E9        29.87F FOG              
KANSAS C DTWN  LGT RAIN  70  66  88 NE8       29.85F                  
LEE'S SUMMIT   LGT RAIN  72  68  88 E9        29.86F                  
ST JOSEPH      LGT RAIN  67  65  93 E7        29.88F FOG              
CHILLICOTHE      N/A     70  66  87 VRB5      29.91F                  
     
$$
MOZ066>068-077>081-088>096-101>105-252000-
...SOUTHWEST MISSOURI...
  
CITY           SKY/WX    TMP DP  RH WIND       PRES   REMARKS
SPRINGFIELD    TSTM      75  67  76 SW20G35   29.91S                  
JOPLIN         SUNNY     73  69  87 SW5       29.87F                  
BRANSON        CLOUDY    81  72  74 S9G17     29.93F                  
               
$$
MOZ032>034-039>042-045>050-055>058-069>072-252000-
...CENTRAL MISSOURI...  
  
CITY           SKY/WX    TMP DP  RH WIND       PRES   REMARKS
COLUMBIA       NOT AVBL                                               
JEFFERSON CITY CLOUDY    76  68  76 E7        29.91F                  
ROLLA          CLOUDY    76  69  79 SE6       29.94F                  
SEDALIA        CLOUDY    70  69  97 SE10      29.89F                  
WARRENSBURG    LGT RAIN  72  68  88 E10       29.86F                  
               
$$
MOZ051-052-059>065-252000-
...EAST CENTRAL MISSOURI...
  
CITY           SKY/WX    TMP DP  RH WIND       PRES   REMARKS
ST LOUIS INTL  RAIN      68  66  93 E12       29.97F FOG              
SPIRIT OF STL  CLOUDY    70  66  88 E5        29.95F FOG              
                   
$$
MOZ072>076-082>087-097>100-106>115-252000-
...SOUTH CENTRAL AND SOUTHEAST MISSOURI...
  
CITY           SKY/WX    TMP DP  RH WIND       PRES   REMARKS
CAPE GIRARDEAU PTSUNNY   79  70  74 SE5       29.94F                  
POPLAR BLUFF   LGT RAIN  73  70  90 CALM      29.93F FOG              
WEST PLAINS    CLOUDY    76  70  82 S8        29.96F                  
                                       
$$